This is the latest recevied weather packets stored in our database for station/object SR6WVX. If no packets are shown the sender has not sent any weather packets the latest 10 day(s).
| Time | Temp. | Humidity | Pressure | Rain* | Wind** | Luminosity | Snow |
|---|---|---|---|---|---|---|---|
| 1777750734 | 10° C | 53% | 1013.4 hPa | 0 mm | - | - | - |
| 1777750434 | 10° C | 52% | 1013.3 hPa | 0 mm | - | - | - |
| 1777750134 | 10° C | 50% | 1013.4 hPa | 0 mm | - | - | - |
| 1777749834 | 10.56° C | 50% | 1013.6 hPa | 0 mm | - | - | - |
| 1777749533 | 10.56° C | 50% | 1013.6 hPa | 0 mm | - | - | - |
| 1777749233 | 10.56° C | 48% | 1013.4 hPa | 0 mm | - | - | - |
| 1777748933 | 11.11° C | 46% | 1013.4 hPa | 0 mm | - | - | - |
| 1777748633 | 11.11° C | 45% | 1013.5 hPa | 0 mm | - | - | - |
| 1777748332 | 11.67° C | 46% | 1013.5 hPa | 0 mm | - | - | - |
| 1777748032 | 12.22° C | 44% | 1013.4 hPa | 0 mm | - | - | - |
| 1777747732 | 12.22° C | 42% | 1013.6 hPa | 0 mm | - | - | - |
| 1777747431 | 12.78° C | 40% | 1013.5 hPa | 0 mm | - | - | - |
| 1777747131 | 13.33° C | 39% | 1013.4 hPa | 0 mm | - | - | - |
| 1777746831 | 13.89° C | 39% | 1013.3 hPa | 0 mm | - | - | - |
| 1777746531 | 14.44° C | 38% | 1013.3 hPa | 0 mm | - | - | - |
| 1777746230 | 15° C | 36% | 1013.3 hPa | 0 mm | - | - | - |
| 1777745930 | 15.56° C | 36% | 1013.4 hPa | 0 mm | - | - | - |
| 1777745630 | 16.67° C | 34% | 1013.3 hPa | 0 mm | - | - | - |
| 1777745330 | 16.67° C | 33% | 1013.3 hPa | 0 mm | - | - | - |
| 1777745029 | 17.78° C | 32% | 1013.1 hPa | 0 mm | - | - | - |
| 1777744729 | 18.33° C | 31% | 1013.1 hPa | 0 mm | - | - | - |
| 1777744429 | 19.44° C | 30% | 1013 hPa | 0 mm | - | - | - |
| 1777744129 | 20° C | 30% | 1013.1 hPa | 0 mm | - | - | - |
| 1777743829 | 21.11° C | 27% | 1013.2 hPa | 0 mm | - | - | - |
| 1777743528 | 22.78° C | 26% | 1013.2 hPa | 0 mm | - | - | - |
* Rain latest hour (hover to see other rain measurements)
** Current wind speed in m/s (hover to see current wind gust speed)